Time,TemperatureF,DewpointF,PressureIn,WindDirection,WindDirectionDegrees,WindSpeedMPH,WindSpeedGustMPH,Humidity,HourlyPrecipIn,Conditions,Clouds,dailyrainin,SoftwareType,DateUTC
2013-03-06 00:02:00,21.0,20.0,-100.00,NNE,15,7.0,11.0,93,-99.99,,,-99.99,,2013-03-06 06:02:00,
2013-03-06 00:11:00,21.0,20.0,-100.00,NNE,15,7.0,11.0,93,-99.99,,,-99.99,,2013-03-06 06:11:00,
2013-03-06 00:32:00,22.0,20.0,-100.00,North,0,4.0,14.0,95,-99.99,,,-99.99,,2013-03-06 06:32:00,
2013-03-06 00:42:00,22.0,20.0,-100.00,North,0,4.0,14.0,95,-99.99,,,-99.99,,2013-03-06 06:42:00,
2013-03-06 00:52:00,22.0,20.0,-100.00,North,0,4.0,14.0,95,-99.99,,,-99.99,,2013-03-06 06:52:00,
2013-03-06 01:01:00,22.0,20.0,-100.00,North,0,4.0,14.0,95,-99.99,,,-99.99,,2013-03-06 07:01:00,
2013-03-06 01:11:00,22.0,20.0,-100.00,North,0,4.0,14.0,95,-99.99,,,-99.99,,2013-03-06 07:11:00,
2013-03-06 01:32:00,21.0,21.0,-100.00,North,0,4.0,10.0,98,-99.99,,,-99.99,,2013-03-06 07:32:00,
2013-03-06 01:42:00,21.0,21.0,-100.00,North,0,4.0,10.0,98,-99.99,,,-99.99,,2013-03-06 07:42:00,
2013-03-06 01:52:00,21.0,21.0,-100.00,North,0,4.0,10.0,98,-99.99,,,-99.99,,2013-03-06 07:52:00,
2013-03-06 02:01:00,21.0,21.0,-100.00,North,0,4.0,10.0,98,-99.99,,,-99.99,,2013-03-06 08:01:00,
2013-03-06 02:11:00,21.0,21.0,-100.00,North,0,4.0,10.0,98,-99.99,,,-99.99,,2013-03-06 08:11:00,
2013-03-06 02:12:00,22.0,21.0,-100.00,NNE,30,6.0,12.0,99,-99.99,,,-99.99,,2013-03-06 08:12:00,
2013-03-06 02:32:00,22.0,21.0,-100.00,NNE,30,6.0,12.0,99,-99.99,,,-99.99,,2013-03-06 08:32:00,
2013-03-06 02:42:00,22.0,21.0,-100.00,NNE,30,6.0,12.0,99,-99.99,,,-99.99,,2013-03-06 08:42:00,
2013-03-06 02:52:00,22.0,21.0,-100.00,NNE,30,6.0,12.0,99,-99.99,,,-99.99,,2013-03-06 08:52:00,
2013-03-06 03:01:00,22.0,21.0,-100.00,NNE,30,6.0,12.0,99,-99.99,,,-99.99,,2013-03-06 09:01:00,
2013-03-06 03:11:00,22.0,22.0,-100.00,NNE,15,4.0,9.0,98,-99.99,,,-99.99,,2013-03-06 09:11:00,
2013-03-06 03:32:00,22.0,22.0,-100.00,NNE,15,4.0,9.0,98,-99.99,,,-99.99,,2013-03-06 09:32:00,
2013-03-06 03:42:00,22.0,22.0,-100.00,NNE,15,4.0,9.0,98,-99.99,,,-99.99,,2013-03-06 09:42:00,
2013-03-06 03:52:00,22.0,22.0,-100.00,NNE,15,4.0,9.0,98,-99.99,,,-99.99,,2013-03-06 09:52:00,
2013-03-06 04:01:00,22.0,22.0,-100.00,NNE,15,4.0,9.0,98,-99.99,,,-99.99,,2013-03-06 10:01:00,
2013-03-06 05:32:00,21.0,21.0,-100.00,North,0,6.0,10.0,97,-99.99,,,-99.99,,2013-03-06 11:32:00,
2013-03-06 05:42:00,21.0,21.0,-100.00,North,0,6.0,10.0,97,-99.99,,,-99.99,,2013-03-06 11:42:00,
2013-03-06 05:52:00,21.0,21.0,-100.00,North,0,6.0,10.0,97,-99.99,,,-99.99,,2013-03-06 11:52:00,
2013-03-06 06:02:00,21.0,21.0,-100.00,North,0,6.0,10.0,97,-99.99,,,-99.99,,2013-03-06 12:02:00,
2013-03-06 06:10:00,21.0,20.0,-100.00,North,10,6.0,10.0,97,-99.99,,,-99.99,,2013-03-06 12:10:00,
2013-03-06 06:11:00,21.0,21.0,-100.00,North,0,6.0,10.0,97,-99.99,,,-99.99,,2013-03-06 12:11:00,
2013-03-06 06:33:00,21.0,20.0,-100.00,North,10,6.0,10.0,97,-99.99,,,-99.99,,2013-03-06 12:33:00,
2013-03-06 06:43:00,21.0,20.0,-100.00,North,10,6.0,10.0,97,-99.99,,,-99.99,,2013-03-06 12:43:00,
2013-03-06 06:52:00,21.0,20.0,-100.00,North,10,6.0,10.0,97,-99.99,,,-99.99,,2013-03-06 12:52:00,
2013-03-06 07:02:00,21.0,20.0,-100.00,North,10,6.0,10.0,97,-99.99,,,-99.99,,2013-03-06 13:02:00,
2013-03-06 07:32:00,21.0,21.0,-100.00,North,350,5.0,12.0,98,-99.99,,,-99.99,,2013-03-06 13:32:00,
2013-03-06 07:42:00,21.0,21.0,-100.00,North,350,5.0,12.0,98,-99.99,,,-99.99,,2013-03-06 13:42:00,
2013-03-06 07:52:00,21.0,21.0,-100.00,North,350,5.0,12.0,98,-99.99,,,-99.99,,2013-03-06 13:52:00,
2013-03-06 08:01:00,21.0,21.0,-100.00,North,350,5.0,12.0,98,-99.99,,,-99.99,,2013-03-06 14:01:00,
2013-03-06 08:11:00,21.0,21.0,-100.00,North,350,5.0,12.0,98,-99.99,,,-99.99,,2013-03-06 14:11:00,
2013-03-06 08:32:00,22.0,21.0,-100.00,North,0,6.0,11.0,98,-99.99,,,-99.99,,2013-03-06 14:32:00,
2013-03-06 08:42:00,22.0,21.0,-100.00,North,0,6.0,11.0,98,-99.99,,,-99.99,,2013-03-06 14:42:00,
2013-03-06 08:52:00,22.0,21.0,-100.00,North,0,6.0,11.0,98,-99.99,,,-99.99,,2013-03-06 14:52:00,
2013-03-06 09:02:00,22.0,21.0,-100.00,North,0,6.0,11.0,98,-99.99,,,-99.99,,2013-03-06 15:02:00,
2013-03-06 09:11:00,22.0,21.0,-100.00,North,0,6.0,11.0,98,-99.99,,,-99.99,,2013-03-06 15:11:00,
2013-03-06 09:32:00,23.0,20.0,-100.00,North,350,6.0,14.0,90,-99.99,,,-99.99,,2013-03-06 15:32:00,
2013-03-06 09:42:00,23.0,20.0,-100.00,North,350,6.0,14.0,90,-99.99,,,-99.99,,2013-03-06 15:42:00,
2013-03-06 09:52:00,23.0,20.0,-100.00,North,350,6.0,14.0,90,-99.99,,,-99.99,,2013-03-06 15:52:00,
2013-03-06 10:01:00,23.0,20.0,-100.00,North,350,6.0,14.0,90,-99.99,,,-99.99,,2013-03-06 16:01:00,
2013-03-06 10:10:00,23.0,19.0,-100.00,NNW,340,10.0,15.0,84,-99.99,,,-99.99,,2013-03-06 16:10:00,
2013-03-06 10:11:00,23.0,20.0,-100.00,North,350,6.0,14.0,90,-99.99,,,-99.99,,2013-03-06 16:11:00,
2013-03-06 10:32:00,23.0,19.0,-100.00,NNW,340,10.0,15.0,84,-99.99,,,-99.99,,2013-03-06 16:32:00,
2013-03-06 10:42:00,23.0,19.0,-100.00,NNW,340,10.0,15.0,84,-99.99,,,-99.99,,2013-03-06 16:42:00,
2013-03-06 10:52:00,23.0,19.0,-100.00,NNW,340,10.0,15.0,84,-99.99,,,-99.99,,2013-03-06 16:52:00,
2013-03-06 11:01:00,23.0,19.0,-100.00,NNW,340,10.0,15.0,84,-99.99,,,-99.99,,2013-03-06 17:01:00,
2013-03-06 11:32:00,25.0,18.0,-100.00,North,0,6.0,11.0,75,-99.99,,,-99.99,,2013-03-06 17:32:00,
2013-03-06 11:42:00,25.0,18.0,-100.00,North,0,6.0,11.0,75,-99.99,,,-99.99,,2013-03-06 17:42:00,
2013-03-06 11:53:00,25.0,18.0,-100.00,North,0,6.0,11.0,75,-99.99,,,-99.99,,2013-03-06 17:53:00,
2013-03-06 12:02:00,25.0,18.0,-100.00,North,0,6.0,11.0,75,-99.99,,,-99.99,,2013-03-06 18:02:00,
2013-03-06 12:32:00,26.0,16.0,-100.00,NNW,340,10.0,12.0,67,-99.99,,,-99.99,,2013-03-06 18:32:00,
2013-03-06 12:42:00,26.0,16.0,-100.00,NNW,340,10.0,12.0,67,-99.99,,,-99.99,,2013-03-06 18:42:00,
2013-03-06 12:53:00,26.0,16.0,-100.00,NNW,340,10.0,12.0,67,-99.99,,,-99.99,,2013-03-06 18:53:00,
2013-03-06 13:02:00,26.0,16.0,-100.00,NNW,340,10.0,12.0,67,-99.99,,,-99.99,,2013-03-06 19:02:00,
2013-03-06 13:11:00,26.0,16.0,-100.00,NNW,340,10.0,12.0,67,-99.99,,,-99.99,,2013-03-06 19:11:00,
2013-03-06 13:32:00,26.0,16.0,-100.00,NW,320,7.0,13.0,64,-99.99,,,-99.99,,2013-03-06 19:32:00,
2013-03-06 13:43:00,26.0,16.0,-100.00,NW,320,7.0,13.0,64,-99.99,,,-99.99,,2013-03-06 19:43:00,
2013-03-06 13:53:00,26.0,16.0,-100.00,NW,320,7.0,13.0,64,-99.99,,,-99.99,,2013-03-06 19:53:00,
2013-03-06 14:02:00,26.0,16.0,-100.00,NW,320,7.0,13.0,64,-99.99,,,-99.99,,2013-03-06 20:02:00,
2013-03-06 14:11:00,26.0,16.0,-100.00,NW,320,7.0,13.0,64,-99.99,,,-99.99,,2013-03-06 20:11:00,
2013-03-06 14:33:00,28.0,16.0,-100.00,NNW,335,7.0,13.0,60,-99.99,,,-99.99,,2013-03-06 20:33:00,
2013-03-06 14:43:00,28.0,16.0,-100.00,NNW,335,7.0,13.0,60,-99.99,,,-99.99,,2013-03-06 20:43:00,
2013-03-06 14:53:00,28.0,16.0,-100.00,NNW,335,7.0,13.0,60,-99.99,,,-99.99,,2013-03-06 20:53:00,
2013-03-06 15:02:00,28.0,16.0,-100.00,NNW,335,7.0,13.0,60,-99.99,,,-99.99,,2013-03-06 21:02:00,
2013-03-06 15:11:00,28.0,16.0,-100.00,NNW,335,7.0,13.0,60,-99.99,,,-99.99,,2013-03-06 21:11:00,
2013-03-06 15:33:00,27.0,14.0,-100.00,NNW,335,7.0,10.0,57,-99.99,,,-99.99,,2013-03-06 21:33:00,
2013-03-06 15:42:00,27.0,14.0,-100.00,NNW,335,7.0,10.0,57,-99.99,,,-99.99,,2013-03-06 21:42:00,
2013-03-06 15:52:00,27.0,14.0,-100.00,NNW,335,7.0,10.0,57,-99.99,,,-99.99,,2013-03-06 21:52:00,
2013-03-06 16:01:00,27.0,14.0,-100.00,NNW,335,7.0,10.0,57,-99.99,,,-99.99,,2013-03-06 22:01:00,
2013-03-06 16:10:00,28.0,13.0,-100.00,NW,325,8.0,12.0,54,-99.99,,,-99.99,,2013-03-06 22:10:00,
2013-03-06 16:32:00,28.0,13.0,-100.00,NW,325,8.0,12.0,54,-99.99,,,-99.99,,2013-03-06 22:32:00,
2013-03-06 16:42:00,28.0,13.0,-100.00,NW,325,8.0,12.0,54,-99.99,,,-99.99,,2013-03-06 22:42:00,
2013-03-06 16:52:00,28.0,13.0,-100.00,NW,325,8.0,12.0,54,-99.99,,,-99.99,,2013-03-06 22:52:00,
2013-03-06 17:01:00,28.0,13.0,-100.00,NW,325,8.0,12.0,54,-99.99,,,-99.99,,2013-03-06 23:01:00,
2013-03-06 17:32:00,28.0,12.0,-100.00,North,5,6.0,8.0,51,-99.99,,,-99.99,,2013-03-06 23:32:00,
2013-03-06 17:42:00,28.0,12.0,-100.00,North,5,6.0,8.0,51,-99.99,,,-99.99,,2013-03-06 23:42:00,
2013-03-06 17:52:00,28.0,12.0,-100.00,North,5,6.0,8.0,51,-99.99,,,-99.99,,2013-03-06 23:52:00,
2013-03-06 18:01:00,28.0,12.0,-100.00,North,5,6.0,8.0,51,-99.99,,,-99.99,,2013-03-07 00:01:00,
2013-03-06 18:11:00,28.0,12.0,-100.00,North,5,6.0,8.0,51,-99.99,,,-99.99,,2013-03-07 00:11:00,
2013-03-06 18:32:00,26.0,11.0,-100.00,North,0,6.0,9.0,53,-99.99,,,-99.99,,2013-03-07 00:32:00,
2013-03-06 18:42:00,26.0,11.0,-100.00,North,0,6.0,9.0,53,-99.99,,,-99.99,,2013-03-07 00:42:00,
2013-03-06 18:52:00,26.0,11.0,-100.00,North,0,6.0,9.0,53,-99.99,,,-99.99,,2013-03-07 00:52:00,
2013-03-06 19:01:00,26.0,11.0,-100.00,North,0,6.0,9.0,53,-99.99,,,-99.99,,2013-03-07 01:01:00,
2013-03-06 19:32:00,23.0,11.0,-100.00,NNE,15,6.0,9.0,61,-99.99,,,-99.99,,2013-03-07 01:32:00,
2013-03-06 19:42:00,23.0,11.0,-100.00,NNE,15,6.0,9.0,61,-99.99,,,-99.99,,2013-03-07 01:42:00,
2013-03-06 19:52:00,23.0,11.0,-100.00,NNE,15,6.0,9.0,61,-99.99,,,-99.99,,2013-03-07 01:52:00,
2013-03-06 20:01:00,23.0,11.0,-100.00,NNE,15,6.0,9.0,61,-99.99,,,-99.99,,2013-03-07 02:01:00,
2013-03-06 20:11:00,23.0,11.0,-100.00,NNE,15,6.0,9.0,61,-99.99,,,-99.99,,2013-03-07 02:11:00,
2013-03-06 20:32:00,20.0,11.0,-100.00,North,10,4.0,7.0,69,-99.99,,,-99.99,,2013-03-07 02:32:00,
2013-03-06 20:42:00,20.0,11.0,-100.00,North,10,4.0,7.0,69,-99.99,,,-99.99,,2013-03-07 02:42:00,
2013-03-06 20:52:00,20.0,11.0,-100.00,North,10,4.0,7.0,69,-99.99,,,-99.99,,2013-03-07 02:52:00,
2013-03-06 21:02:00,20.0,11.0,-100.00,North,10,4.0,7.0,69,-99.99,,,-99.99,,2013-03-07 03:02:00,
2013-03-06 21:11:00,16.0,9.0,-100.00,North,5,1.0,3.0,76,-99.99,,,-99.99,,2013-03-07 03:11:00,
2013-03-06 21:32:00,16.0,9.0,-100.00,North,5,1.0,3.0,76,-99.99,,,-99.99,,2013-03-07 03:32:00,
2013-03-06 21:42:00,16.0,9.0,-100.00,North,5,1.0,3.0,76,-99.99,,,-99.99,,2013-03-07 03:42:00,
2013-03-06 21:52:00,16.0,9.0,-100.00,North,5,1.0,3.0,76,-99.99,,,-99.99,,2013-03-07 03:52:00,
2013-03-06 22:01:00,16.0,9.0,-100.00,North,5,1.0,3.0,76,-99.99,,,-99.99,,2013-03-07 04:01:00,
2013-03-06 22:11:00,11.0,7.0,-100.00,North,0,0.0,0.0,84,-99.99,,,-99.99,,2013-03-07 04:11:00,
2013-03-06 22:32:00,11.0,7.0,-100.00,North,0,0.0,0.0,84,-99.99,,,-99.99,,2013-03-07 04:32:00,
2013-03-06 22:42:00,11.0,7.0,-100.00,North,0,0.0,0.0,84,-99.99,,,-99.99,,2013-03-07 04:42:00,
2013-03-06 22:52:00,11.0,7.0,-100.00,North,0,0.0,0.0,84,-99.99,,,-99.99,,2013-03-07 04:52:00,
2013-03-06 23:02:00,11.0,7.0,-100.00,North,0,0.0,0.0,84,-99.99,,,-99.99,,2013-03-07 05:02:00,
2013-03-06 23:11:00,7.0,4.0,-100.00,North,0,0.0,0.0,89,-99.99,,,-99.99,,2013-03-07 05:11:00,
2013-03-06 23:32:00,7.0,4.0,-100.00,North,0,0.0,0.0,89,-99.99,,,-99.99,,2013-03-07 05:32:00,
2013-03-06 23:42:00,7.0,4.0,-100.00,North,0,0.0,0.0,89,-99.99,,,-99.99,,2013-03-07 05:42:00,
2013-03-06 23:52:00,7.0,4.0,-100.00,North,0,0.0,0.0,89,-99.99,,,-99.99,,2013-03-07 05:52:00,